Location: Mountain_View
(35.6670°N, 81.4000°W)
Time: 13:12:39
(UTC-05:00)

Amateur Radio Satellites - All Passes

Search period start: 12 February 2016 12:42
Search period end: 13 February 2016 12:42
Location: Mountain_View, 35.6670°N, 81.4000°W

Satellite Date Start Highest point End Downlink Frequencies (MHz)
Time Altitude Azimuth
TISAT 1 12 Feb 12:42:43 12:46:16 27° 97° (E) 12:49:47 437.305
SPROUT 12 Feb 12:43:51 12:48:07 88° 103° (ESE) 12:52:23 437.525
BUGSAT 1 12 Feb 12:45:18 12:47:19 13° 267° (W) 12:49:19 437.445
CUBEBUG 1 12 Feb 12:54:16 12:57:47 24° 290° (WNW) 13:01:16 437.445
DX 1 12 Feb 12:57:32 13:00:31 18° 293° (WNW) 13:03:29 434.975-435.025
YUBILEINY 12 Feb 13:04:54 13:11:14 21° 68° (ENE) 13:17:30 435.215
Gurwin Techsat 1B 12 Feb 13:09:48 13:14:30 33° 69° (ENE) 13:19:12 435.225
JAS-2 12 Feb 13:17:11 13:24:52 79° 75° (ENE) 13:31:53 435.910
ESTCUBE 1 12 Feb 13:17:29 13:19:03 12° 296° (WNW) 13:20:36 437.505/2401.250
AO-7 12 Feb 13:17:31 13:21:02 13° 50° (NE) 13:24:32 29.400- 29.500
SRMSAT 12 Feb 13:24:21 13:26:40 12° 192° (SSW) 13:29:00 437.500
CUSAT 1 12 Feb 13:25:32 13:30:23 40° 270° (W) 13:34:05 437.405
SO-50 12 Feb 13:25:55 13:30:38 54° 57° (ENE) 13:35:09 436.795
ITAMSAT 1 12 Feb 13:31:45 13:36:04 27° 68° (ENE) 13:40:25 435.822/435.867
ISS 12 Feb 13:40:54 13:43:00 16° 128° (SE) 13:45:05 145.825
Oscar 19 12 Feb 13:55:42 14:00:15 31° 263° (W) 14:04:50 437.125/150
SWISSCUBE 12 Feb 14:02:27 14:06:59 40° 99° (E) 14:11:30 437.505
TISAT 1 12 Feb 14:18:39 14:21:46 21° 291° (WNW) 14:24:52 437.305
DANDE 12 Feb 14:22:50 14:27:55 26° 276° (W) 14:31:59 436.750
RS-15 12 Feb 14:31:56 14:39:52 21° 333° (NNW) 14:48:07 29.354- 29.394
ITUPSAT 1 12 Feb 14:40:36 14:45:27 87° 284° (WNW) 14:50:16 437.325
Cosmos 2504 12 Feb 14:46:44 14:52:23 19° 66° (ENE) 14:57:46 435.465 / 435.565
BEESAT 12 Feb 14:47:11 14:51:59 73° 285° (WNW) 14:56:45 436.000
Gurwin Techsat 1B 12 Feb 14:49:59 14:54:24 27° 264° (W) 14:58:51 435.225
YUBILEINY 12 Feb 15:00:02 15:08:50 74° 267° (W) 15:17:34 435.215
Cosmos 2491 12 Feb 15:02:11 15:10:48 70° 93° (E) 15:19:26 435.465 / 435.565
AO-7 12 Feb 15:03:59 15:12:15 68° 69° (ENE) 15:20:33 29.400- 29.500
JAS-2 12 Feb 15:05:33 15:10:15 17° 268° (W) 15:14:44 435.910
SO-50 12 Feb 15:08:08 15:10:34 14° 253° (WSW) 15:12:58 436.795
ITAMSAT 1 12 Feb 15:10:50 15:15:23 31° 263° (W) 15:20:00 435.822/435.867
ISS 12 Feb 15:16:07 15:19:12 38° 323° (NW) 15:22:17 145.825
STARS 12 Feb 15:16:46 15:19:09 14° 93° (E) 15:21:31 437.465
M-CUBED/EXP-1 PRIME 12 Feb 15:17:51 15:21:12 36° 70° (ENE) 15:24:22 437.505
AUBIESAT-1 12 Feb 15:25:00 15:28:20 36° 69° (ENE) 15:31:30 437.475
KKS-1 12 Feb 15:39:59 15:44:20 54° 101° (E) 15:48:39 437.445
SWISSCUBE 12 Feb 15:41:08 15:44:27 19° 294° (WNW) 15:47:46 437.505
MOZHAYETS 4 12 Feb 15:54:54 15:59:00 30° 97° (E) 16:03:05
BEESAT 3 12 Feb 15:58:28 16:02:01 32° 113° (ESE) 16:05:36 437.485
HORYU 2 12 Feb 16:02:11 16:06:35 74° 75° (ENE) 16:10:59 437.375
BEESAT 2 12 Feb 16:27:46 16:31:35 45° 115° (ESE) 16:35:26 435.950
Cosmos 2504 12 Feb 16:38:15 16:46:45 77° 266° (W) 16:54:35 435.465 / 435.565
STARS 12 Feb 16:51:34 16:55:40 41° 287° (WNW) 16:59:46 437.465
RS-15 12 Feb 16:53:16 16:59:20 15° 11° (N) 17:05:30 29.354- 29.394
BRITE-PL 12 Feb 16:54:50 16:56:19 11° 63° (ENE) 16:57:48 437.365/2234.400
M-CUBED/EXP-1 PRIME 12 Feb 16:55:12 16:55:54 10° 260° (W) 16:56:37 437.505
AO-7 12 Feb 16:59:16 17:05:31 23° 265° (W) 17:11:49 29.400- 29.500
Cosmos 2491 12 Feb 17:01:59 17:08:20 22° 291° (WNW) 17:14:45 435.465 / 435.565
YUBILEINY 12 Feb 17:02:07 17:03:57 11° 285° (WNW) 17:05:47 435.215
AUBIESAT-1 12 Feb 17:02:16 17:02:59 10° 261° (W) 17:03:41 437.475
CUTE-I 12 Feb 17:10:13 17:14:44 29° 68° (ENE) 17:19:15 437.470
AIST 2 12 Feb 17:11:18 17:12:41 11° 108° (ESE) 17:14:05 435.215
KKS-1 12 Feb 17:18:35 17:20:24 12° 295° (WNW) 17:22:13 437.445
Cubesat XI-IV 12 Feb 17:24:26 17:29:21 39° 70° (ENE) 17:34:17 437.490
MOZHAYETS 4 12 Feb 17:32:22 17:35:58 23° 291° (WNW) 17:39:34
LilacSat-2 12 Feb 17:36:27 17:39:56 35° 74° (ENE) 17:43:26 437.200
BEESAT 3 12 Feb 17:36:57 17:39:50 19° 309° (NW) 17:42:44 437.485
O/OREOS (USA 219) 12 Feb 17:40:10 17:44:45 71° 69° (ENE) 17:49:20 437.305
GOMX 1 12 Feb 17:43:21 17:46:33 16° 67° (ENE) 17:49:42 467.674
HO-68 12 Feb 18:04:12 18:06:56 12° 55° (NE) 18:09:40 435.675
BEESAT 2 12 Feb 18:07:20 18:09:42 15° 311° (NW) 18:12:05 435.950
CUBESAT XI-V 12 Feb 18:20:31 18:25:12 71° 284° (WNW) 18:29:50 437.345
AO-85 12 Feb 18:27:51 18:32:29 34° 52° (NE) 18:36:44 145.980
BRITE-PL 12 Feb 18:28:18 18:34:01 88° 74° (ENE) 18:39:34 437.365/2234.400
GONETS M04 12 Feb 18:31:13 18:36:29 17° 66° (ENE) 18:41:42
Cosmos 2504 12 Feb 18:36:18 18:38:26 11° 285° (WNW) 18:40:32 435.465 / 435.565
STRAND 1 12 Feb 18:37:48 18:41:28 19° 94° (E) 18:45:07 437.568
DOVE 4 12 Feb 18:45:31 18:50:02 34° 72° (ENE) 18:54:21 437.250
AIST 2 12 Feb 18:46:37 18:50:41 53° 302° (WNW) 18:54:47 435.215
PCSat 12 Feb 18:47:52 18:51:58 21° 52° (NE) 18:56:02 145.827
CUTE-I 12 Feb 18:49:59 18:54:39 31° 263° (W) 18:59:21 437.470
Cubesat XI-IV 12 Feb 19:05:25 19:09:30 22° 265° (W) 19:13:37 437.490
RS-15 12 Feb 19:06:15 19:17:08 36° 44° (NE) 19:28:07 29.354- 29.394
LilacSat-2 12 Feb 19:12:43 19:14:23 12° 267° (W) 19:16:02 437.200
CINEMA 3 12 Feb 19:18:13 19:21:49 23° 70° (ENE) 19:25:18 145.822/145.860
GOMX 1 12 Feb 19:18:53 19:24:12 57° 260° (W) 19:29:17 467.674
CANX-2 12 Feb 19:26:16 19:30:06 36° 73° (ENE) 19:33:59 2200.000
Cosmos 2499 12 Feb 19:38:53 19:44:15 19° 66° (ENE) 19:49:21 435.465 / 435.565
HO-68 12 Feb 19:46:17 19:53:25 75° 72° (ENE) 20:00:37 435.675
COMPASS 1 12 Feb 19:57:12 20:01:04 39° 73° (ENE) 20:04:57 437.405
AO-85 12 Feb 20:08:46 20:12:47 25° 251° (WSW) 20:16:31 145.980
PRISM 12 Feb 20:09:28 20:13:33 52° 100° (E) 20:17:35 437.425
ISS 12 Feb 20:11:37 20:12:10 10° 23° (NNE) 20:12:43 145.825
BRITE-PL 12 Feb 20:12:09 20:12:57 10° 271° (W) 20:13:45 437.365/2234.400
STRAND 1 12 Feb 20:15:56 20:20:47 42° 288° (WNW) 20:25:37 437.568
CUTE 1.7 + AOD 2 12 Feb 20:15:59 20:20:08 62° 260° (W) 20:24:20 437.475
SEEDS 12 Feb 20:16:43 20:20:53 83° 258° (WSW) 20:25:07 437.485
Oscar 11 12 Feb 20:20:57 20:24:26 25° 70° (ENE) 20:27:55 145.826/435.025
AAUSAT CUBESAT 2 12 Feb 20:22:33 20:26:38 66° 77° (ENE) 20:30:46 437.432
DOVE 4 12 Feb 20:23:42 20:27:42 23° 264° (W) 20:31:34 437.250
GONETS M04 12 Feb 20:25:34 20:34:25 88° 268° (W) 20:43:16
PCSat 12 Feb 20:30:23 20:35:38 51° 249° (WSW) 20:40:50 145.827
UWE-3 12 Feb 20:34:14 20:38:11 38° 73° (ENE) 20:42:04 435.000/436.395/437.385
CUBEBUG 2 12 Feb 20:39:52 20:44:09 66° 76° (ENE) 20:48:20 437.445
CINEMA 3 12 Feb 20:54:52 20:58:49 28° 263° (W) 21:02:38 145.822/145.860
AIST 1 12 Feb 20:59:09 21:02:26 21° 75° (ENE) 21:05:41
CANX-2 12 Feb 21:03:36 21:06:05 15° 267° (W) 21:08:34 2200.000
DELFI C3 12 Feb 21:11:38 21:15:27 49° 75° (ENE) 21:19:19 145.870
HUMSAT D 12 Feb 21:13:16 21:16:15 20° 69° (ENE) 21:19:14 437.325/437.525
RS-15 12 Feb 21:18:28 21:30:36 72° 246° (WSW) 21:42:46 29.354- 29.394
ZACube-1 12 Feb 21:20:44 21:24:56 83° 256° (WSW) 21:29:07 437.345
FUNcube-1 12 Feb 21:28:08 21:32:19 71° 259° (W) 21:36:27 145.935
Cosmos 2499 12 Feb 21:30:06 21:38:20 76° 266° (W) 21:45:53 435.465 / 435.565
COMPASS 1 12 Feb 21:34:41 21:36:48 14° 268° (W) 21:38:55 437.405
HO-68 12 Feb 21:37:19 21:41:42 17° 268° (W) 21:46:08 435.675
ISS 12 Feb 21:45:57 21:49:10 59° 40° (NE) 21:52:22 145.825
PRISM 12 Feb 21:47:05 21:48:22 11° 295° (WNW) 21:49:40 437.425
Oscar 11 12 Feb 21:57:00 22:00:28 24° 264° (W) 22:03:57 145.826/435.025
UKube-1 12 Feb 21:58:06 21:59:31 11° 64° (ENE) 22:00:57 .
UNISAT 6 12 Feb 21:58:48 22:01:58 19° 95° (E) 22:05:10 437.425
AISAT 12 Feb 22:01:54 22:04:31 15° 66° (ENE) 22:07:07 437.250
CUBEBUG 1 12 Feb 22:12:07 22:14:44 16° 67° (ENE) 22:17:22 437.445
UWE-3 12 Feb 22:12:30 22:14:47 14° 267° (W) 22:17:02 435.000/436.395/437.385
DX 1 12 Feb 22:13:50 22:17:08 21° 68° (ENE) 22:20:27 434.975-435.025
50 SAT 12 Feb 22:21:01 22:24:02 24° 71° (ENE) 22:27:05 437.505
GONETS M04 12 Feb 22:25:35 22:29:53 15° 282° (WNW) 22:34:12
PHONESAT 2.4 12 Feb 22:30:54 22:33:15 18° 145° (SE) 22:35:37 2401.200-2431.200
ESTCUBE 1 12 Feb 22:34:55 22:39:06 38° 72° (ENE) 22:43:19 437.505/2401.250
AIST 1 12 Feb 22:36:24 22:39:58 25° 271° (W) 22:43:30
ANTELSAT 12 Feb 22:42:47 22:47:08 63° 101° (E) 22:51:35 437.575/2403.000
HUMSAT D 12 Feb 22:48:17 22:51:43 26° 263° (W) 22:55:10 437.325/437.525
TIGRISAT 12 Feb 22:48:31 22:52:52 70° 101° (E) 22:57:20 435.000
POLYITAN 1 12 Feb 23:08:46 23:12:19 26° 97° (E) 23:15:52 437.675
QB50P2 12 Feb 23:09:13 23:12:49 27° 97° (E) 23:16:25 145.880/145.840
VELOX 1 12 Feb 23:18:48 23:23:16 74° 258° (WSW) 23:27:45 145.980
ISS 12 Feb 23:24:47 23:25:12 10° 234° (SW) 23:25:38 145.825
Cosmos 2499 12 Feb 23:28:49 23:29:45 10° 285° (WNW) 23:30:39 435.465 / 435.565
UKube-1 12 Feb 23:30:48 23:35:03 57° 259° (W) 23:39:20 .
TISAT 1 12 Feb 23:32:50 23:35:12 15° 67° (ENE) 23:37:33 437.305
SPROUT 12 Feb 23:34:33 23:38:38 44° 73° (ENE) 23:42:43 437.525
UNISAT 6 12 Feb 23:34:49 23:38:42 32° 288° (WNW) 23:42:39 437.425
RS-15 12 Feb 23:35:47 23:40:53 14° 264° (W) 23:46:00 29.354- 29.394
AISAT 12 Feb 23:36:21 23:40:36 43° 260° (W) 23:44:53 437.250
POPSAT HIP 1 12 Feb 23:37:40 23:41:49 58° 101° (E) 23:45:57 437.405
DUCHIFAT 1 12 Feb 23:40:11 23:44:19 58° 101° (E) 23:48:26 145.980
NANOSAT C BR1 12 Feb 23:40:15 23:44:25 61° 101° (E) 23:48:33 145.865
CUBEBUG 1 12 Feb 23:46:27 23:50:39 42° 261° (W) 23:54:52 437.445
DX 1 12 Feb 23:49:19 23:53:08 29° 263° (W) 23:56:58 434.975-435.025
QB50P1 12 Feb 23:49:56 23:54:10 85° 104° (ESE) 23:58:22 145.935-145.965
50 SAT 12 Feb 23:55:32 23:58:01 17° 265° (W) 00:00:31 437.505
PHONESAT 2.4 13 Feb 00:06:57 00:10:14 81° 337° (NNW) 00:13:32 2401.200-2431.200
ESTCUBE 1 13 Feb 00:13:08 00:16:02 17° 266° (W) 00:18:57 437.505/2401.250
ANTELSAT 13 Feb 00:22:27 00:23:20 11° 295° (WNW) 00:24:13 437.575/2403.000
BUGSAT 1 13 Feb 00:27:39 00:31:40 72° 284° (WNW) 00:35:39 437.445
Oscar 19 13 Feb 00:33:24 00:34:51 11° 91° (E) 00:36:16 437.125/150
CUSAT 1 13 Feb 00:39:58 00:46:54 34° 88° (E) 00:53:51 437.405
POLYITAN 1 13 Feb 00:44:46 00:47:59 21° 291° (WNW) 00:51:10 437.675
QB50P2 13 Feb 00:45:19 00:48:27 21° 291° (WNW) 00:51:35 145.880/145.840
BEESAT 2 13 Feb 00:50:13 00:52:04 13° 48° (NE) 00:53:53 435.950
SWISSCUBE 13 Feb 01:06:11 01:10:26 33° 71° (ENE) 01:14:43 437.505
TISAT 1 13 Feb 01:06:32 01:10:30 40° 261° (W) 01:14:29 437.305
SPROUT 13 Feb 01:12:47 01:14:47 13° 267° (W) 01:16:47 437.525
POPSAT HIP 1 13 Feb 01:16:26 01:17:04 10° 295° (WNW) 01:17:43 437.405
Cosmos 2491 13 Feb 01:16:49 01:24:13 30° 72° (ENE) 01:31:35 435.465 / 435.565
DUCHIFAT 1 13 Feb 01:18:55 01:19:30 10° 295° (WNW) 01:20:05 145.980
Gurwin Techsat 1B 13 Feb 01:29:54 01:33:09 16° 93° (E) 01:36:23 435.225
DANDE 13 Feb 01:40:30 01:48:03 56° 92° (E) 01:56:17 436.750
ITUPSAT 1 13 Feb 01:44:15 01:49:00 77° 77° (ENE) 01:53:48 437.325
PHONESAT 2.4 13 Feb 01:44:41 01:47:44 34° 356° (N) 01:50:46 2401.200-2431.200
ITAMSAT 1 13 Feb 01:49:25 01:51:10 12° 91° (E) 01:52:54 435.822/435.867
BEESAT 13 Feb 01:50:26 01:55:12 88° 263° (W) 02:00:00 436.000
BEESAT 3 13 Feb 01:55:53 01:59:50 78° 241° (WSW) 02:03:45 437.485
YUBILEINY 13 Feb 02:02:28 02:09:20 27° 83° (E) 02:16:14 435.215
Oscar 19 13 Feb 02:09:29 02:14:36 70° 285° (WNW) 02:19:40 437.125/150
JAS-2 13 Feb 02:16:04 02:21:33 88° 103° (ESE) 02:26:44 435.910
CUSAT 1 13 Feb 02:21:11 02:28:53 50° 283° (WNW) 02:36:35 437.405
BEESAT 2 13 Feb 02:26:23 02:30:17 55° 244° (WSW) 02:34:08 435.950
KKS-1 13 Feb 02:35:15 02:39:16 34° 71° (ENE) 02:43:18 437.445
SWISSCUBE 13 Feb 02:44:39 02:48:16 21° 265° (W) 02:51:54 437.505
MOZHAYETS 4 13 Feb 02:54:30 02:57:54 21° 68° (ENE) 03:01:19
Gurwin Techsat 1B 13 Feb 03:08:12 03:13:22 53° 288° (WNW) 03:18:31 435.225
AO-7 13 Feb 03:09:59 03:16:37 26° 96° (E) 03:23:11 29.400- 29.500
AIST 2 13 Feb 03:10:48 03:14:41 38° 56° (NE) 03:18:31 435.215
Cosmos 2491 13 Feb 03:12:56 03:21:20 54° 270° (W) 03:29:47 435.465 / 435.565
Cosmos 2504 13 Feb 03:22:12 03:27:17 17° 78° (ENE) 03:32:27 435.465 / 435.565
PHONESAT 2.4 13 Feb 03:22:12 03:25:22 44° 12° (NNE) 03:28:31 2401.200-2431.200
DANDE 13 Feb 03:24:29 03:31:21 31° 290° (WNW) 03:38:40 436.750
ITAMSAT 1 13 Feb 03:25:51 03:31:04 71° 286° (WNW) 03:36:15 435.822/435.867
SO-50 13 Feb 03:37:08 03:41:33 35° 113° (ESE) 03:46:03 436.795
STARS 13 Feb 03:44:49 03:49:11 70° 258° (WSW) 03:53:35 437.465
YUBILEINY 13 Feb 03:56:51 04:05:27 58° 281° (W) 04:14:10 435.215
HORYU 2 13 Feb 03:57:08 04:00:07 17° 94° (E) 04:03:06 437.375
KKS-1 13 Feb 04:12:49 04:15:54 18° 265° (W) 04:18:59 437.445
MOZHAYETS 4 13 Feb 04:30:46 04:34:51 32° 263° (W) 04:38:57
M-CUBED/EXP-1 PRIME 13 Feb 04:33:47 04:37:10 45° 105° (ESE) 04:40:47 437.505
AUBIESAT-1 13 Feb 04:40:21 04:43:47 45° 105° (ESE) 04:47:27 437.475
AIST 2 13 Feb 04:50:21 04:52:50 16° 251° (WSW) 04:55:19 435.215
PHONESAT 2.4 13 Feb 04:59:29 05:02:38 45° 208° (SSW) 05:05:46 2401.200-2431.200
AO-7 13 Feb 05:01:37 05:09:47 61° 292° (WNW) 05:17:52 29.400- 29.500
Cosmos 2504 13 Feb 05:10:48 05:19:24 86° 276° (W) 05:28:22 435.465 / 435.565
SO-50 13 Feb 05:17:59 05:22:06 26° 309° (NW) 05:26:15 436.795
CUBESAT XI-V 13 Feb 05:20:27 05:25:08 80° 77° (ENE) 05:29:52 437.345
CUTE-I 13 Feb 05:31:23 05:34:10 14° 92° (E) 05:36:55 437.470
HORYU 2 13 Feb 05:32:42 05:36:46 36° 288° (WNW) 05:40:50 437.375
Cubesat XI-IV 13 Feb 05:45:19 05:49:12 20° 94° (E) 05:53:05 437.490
STRAND 1 13 Feb 05:51:01 05:54:49 22° 66° (ENE) 05:58:39 437.568
O/OREOS (USA 219) 13 Feb 06:13:45 06:15:01 11° 98° (E) 06:16:17 437.305
AUBIESAT-1 13 Feb 06:17:43 06:18:03 10° 297° (WNW) 06:18:23 437.475
BRITE-PL 13 Feb 06:37:33 06:41:36 32° 96° (E) 06:45:27 437.365/2234.400
LilacSat-2 13 Feb 06:46:35 06:50:23 85° 101° (E) 06:54:11 437.200
PRISM 13 Feb 06:56:30 06:59:57 26° 70° (ENE) 07:03:25 437.425
AO-7 13 Feb 06:58:26 07:00:50 11° 311° (NW) 07:03:14 29.400- 29.500
Cosmos 2504 13 Feb 07:09:10 07:14:04 16° 295° (WNW) 07:19:06 435.465 / 435.565
CUTE-I 13 Feb 07:09:15 07:14:34 62° 286° (WNW) 07:19:51 437.470
HO-68 13 Feb 07:19:34 07:23:34 15° 92° (E) 07:27:33 435.675
Cubesat XI-IV 13 Feb 07:24:20 07:29:26 44° 289° (WNW) 07:34:31 437.490
GOMX 1 13 Feb 07:24:22 07:28:34 51° 99° (E) 07:32:37 467.674
STRAND 1 13 Feb 07:28:56 07:33:42 39° 261° (W) 07:38:30 437.568
GONETS M04 13 Feb 07:29:25 07:35:21 21° 81° (E) 07:41:16
O/OREOS (USA 219) 13 Feb 07:49:28 07:53:50 55° 292° (WNW) 07:58:16 437.305
JUGNU 13 Feb 07:50:20 07:53:49 16° 175° (S) 07:57:16 437.505
CUTE 1.7 + AOD 2 13 Feb 08:04:12 08:07:52 27° 96° (E) 08:11:31 437.475
SEEDS 13 Feb 08:04:24 08:07:34 20° 95° (E) 08:10:43 437.485
AAUSAT CUBESAT 2 13 Feb 08:09:41 08:11:38 13° 92° (E) 08:13:35 437.432
Cosmos 2499 13 Feb 08:12:22 08:17:28 17° 79° (ENE) 08:22:37 435.465 / 435.565
BRITE-PL 13 Feb 08:16:39 08:19:50 19° 293° (WNW) 08:22:52 437.365/2234.400
DOVE 4 13 Feb 08:24:45 08:28:53 61° 285° (WNW) 08:32:57 437.250
PRISM 13 Feb 08:32:00 08:35:12 21° 264° (W) 08:38:26 437.425
CUBEBUG 2 13 Feb 08:34:31 08:37:15 16° 94° (E) 08:40:00 437.445
AO-85 13 Feb 08:39:10 08:43:20 24° 109° (ESE) 08:47:38 145.980
CANX-2 13 Feb 08:49:28 08:53:45 73° 283° (WNW) 08:58:02 2200.000
CINEMA 3 13 Feb 08:51:35 08:55:45 84° 104° (ESE) 09:00:00 145.822/145.860
UNISAT 6 13 Feb 08:56:43 08:58:21 12° 66° (ENE) 09:00:00 437.425
HO-68 13 Feb 09:04:42 09:11:56 81° 287° (WNW) 09:19:06 435.675
GOMX 1 13 Feb 09:04:51 09:06:08 11° 296° (WNW) 09:07:23 467.674
ZACube-1 13 Feb 09:12:23 09:15:45 22° 96° (E) 09:19:10 437.345
COMPASS 1 13 Feb 09:18:08 09:22:21 70° 284° (WNW) 09:26:32 437.405
FUNcube-1 13 Feb 09:19:17 09:22:51 26° 96° (E) 09:26:28 145.935
GONETS M04 13 Feb 09:22:35 09:31:12 71° 278° (W) 09:39:56
PCSat 13 Feb 09:26:16 09:30:59 32° 109° (ESE) 09:35:44 145.827
AIST 1 13 Feb 09:26:23 09:28:49 15° 86° (E) 09:31:15
RS-15 13 Feb 09:29:25 09:37:20 23° 101° (E) 09:45:27 29.354- 29.394
SRMSAT 13 Feb 09:33:42 09:36:56 15° 173° (S) 09:40:10 437.500
JUGNU 13 Feb 09:38:37 09:42:04 16° 185° (S) 09:45:31 437.505
ANTELSAT 13 Feb 09:39:03 09:43:00 37° 73° (ENE) 09:46:56 437.575/2403.000
SEEDS 13 Feb 09:39:35 09:43:15 28° 289° (WNW) 09:46:55 437.485
CUTE 1.7 + AOD 2 13 Feb 09:40:16 09:43:33 22° 290° (WNW) 09:46:49 437.475
AAUSAT CUBESAT 2 13 Feb 09:43:20 09:47:18 42° 287° (WNW) 09:51:17 437.432
TIGRISAT 13 Feb 09:44:31 09:48:32 41° 73° (ENE) 09:52:33 435.000
Oscar 11 13 Feb 09:46:01 09:50:23 76° 101° (ESE) 09:54:44 145.826/435.025
POLYITAN 1 13 Feb 09:59:54 10:02:13 15° 67° (ENE) 10:04:33 437.675
QB50P2 13 Feb 10:00:13 10:02:40 15° 67° (ENE) 10:05:07 145.880/145.840
Cosmos 2499 13 Feb 10:00:37 10:09:21 87° 276° (W) 10:18:18 435.465 / 435.565
UWE-3 13 Feb 10:02:29 10:06:40 60° 284° (WNW) 10:10:57 435.000/436.395/437.385
CUBEBUG 2 13 Feb 10:10:06 10:13:56 34° 287° (WNW) 10:17:50 437.445
AO-85 13 Feb 10:18:30 10:23:34 43° 305° (NW) 10:28:50 145.980
DELFI C3 13 Feb 10:27:10 10:31:10 63° 284° (WNW) 10:35:09 145.870
POPSAT HIP 1 13 Feb 10:27:34 10:31:14 29° 71° (ENE) 10:34:54 437.405
DUCHIFAT 1 13 Feb 10:29:33 10:33:10 29° 71° (ENE) 10:36:48 145.980
NANOSAT C BR1 13 Feb 10:29:47 10:33:29 30° 72° (ENE) 10:37:11 145.865
UNISAT 6 13 Feb 10:30:26 10:34:37 51° 260° (W) 10:38:47 437.425
HUMSAT D 13 Feb 10:33:45 10:37:53 56° 100° (E) 10:42:03 437.325/437.525
QB50P1 13 Feb 10:39:28 10:43:27 41° 73° (ENE) 10:47:26 145.935-145.965
ZACube-1 13 Feb 10:48:26 10:51:59 26° 289° (WNW) 10:55:33 437.345
HO-68 13 Feb 10:55:14 10:58:30 14° 304° (NW) 11:01:47 435.675
FUNcube-1 13 Feb 10:55:38 10:58:58 23° 290° (WNW) 11:02:22 145.935
AIST 1 13 Feb 11:01:56 11:06:01 38° 281° (W) 11:10:09
PCSat 13 Feb 11:09:31 11:14:18 31° 304° (NW) 11:19:07 145.827
VELOX 1 13 Feb 11:12:31 11:16:10 25° 96° (E) 11:19:48 145.980
BUGSAT 1 13 Feb 11:14:12 11:18:16 50° 74° (ENE) 11:22:17 437.445
ANTELSAT 13 Feb 11:17:19 11:19:49 15° 266° (W) 11:22:21 437.575/2403.000
UKube-1 13 Feb 11:21:14 11:24:58 28° 97° (E) 11:28:40 .
SRMSAT 13 Feb 11:21:46 11:25:21 16° 183° (S) 11:28:55 437.500
TIGRISAT 13 Feb 11:23:11 11:25:24 14° 267° (W) 11:27:35 435.000
CUSAT 1 13 Feb 11:25:05 11:25:25 10° 60° (ENE) 11:25:44 437.405
GONETS M04 13 Feb 11:27:21 11:29:41 11° 299° (WNW) 11:32:02
50 SAT 13 Feb 11:28:25 11:32:07 50° 100° (E) 11:35:50 437.505
AISAT 13 Feb 11:29:29 11:33:40 42° 99° (E) 11:37:49 437.250
POLYITAN 1 13 Feb 11:33:42 11:37:41 40° 261° (W) 11:41:40 437.675
QB50P2 13 Feb 11:34:11 11:38:08 39° 261° (W) 11:42:06 145.880/145.840
RS-15 13 Feb 11:37:09 11:48:14 80° 300° (WNW) 11:59:59 29.354- 29.394
CUBEBUG 1 13 Feb 11:37:56 11:42:04 42° 99° (E) 11:46:10 437.445
DX 1 13 Feb 11:39:47 11:44:04 57° 101° (E) 11:48:19 434.975-435.025
Oscar 19 13 Feb 11:47:07 11:49:40 14° 63° (ENE) 11:52:13 437.125/150
Cosmos 2499 13 Feb 11:58:34 12:03:42 16° 295° (WNW) 12:08:53 435.465 / 435.565
POPSAT HIP 1 13 Feb 12:04:00 12:07:02 19° 265° (W) 12:10:04 437.405
DUCHIFAT 1 13 Feb 12:05:50 12:08:52 19° 265° (W) 12:11:55 145.980
NANOSAT C BR1 13 Feb 12:06:18 12:09:15 18° 265° (W) 12:12:11 145.865
ESTCUBE 1 13 Feb 12:06:41 12:11:11 63° 285° (WNW) 12:15:39 437.505/2401.250
HUMSAT D 13 Feb 12:12:03 12:13:01 11° 294° (WNW) 12:14:00 437.325/437.525
SO-50 13 Feb 12:12:12 12:15:19 17° 46° (NE) 12:18:22 436.795
QB50P1 13 Feb 12:17:18 12:19:24 13° 267° (W) 12:21:30 145.935-145.965
JAS-2 13 Feb 12:23:42 12:30:11 33° 68° (ENE) 12:36:10 435.910
DANDE 13 Feb 12:27:27 12:32:54 30° 69° (ENE) 12:37:10 436.750
